Simultaneous Nadir Overpasses (SNOs) Predictions

Prediction of SNOs between METOP-B and TERRA Satellite Orbit:

Table of predicted SNOs for the next 14.0 days since TLE Epoch: 4/14/2018
Index Date (METOP-B) Time (METOP-B) Lat,Lon (METOP-B) SZA (METOP-B ) Date (TERRA) Time (TERRA) Lat,Lon (TERRA) SZA (TERRA ) Distance(km) Time Diff (sec)
1 04/15/2018 05:33:31 81.34, 144.75 74.51 04/15/2018 05:33:34 81.35, 144.85 74.52 1.70 3
2 04/15/2018 06:24:11 -81.35, -47.65 105.48 04/15/2018 06:23:01 -81.35, -47.56 105.50 1.55 70
3 04/18/2018 00:17:17 -81.31, 41.22 106.77 04/18/2018 00:18:31 -81.22, 41.39 106.78 9.55 74
4 04/18/2018 01:07:51 81.34,-148.80 73.54 04/18/2018 01:07:51 81.35,-148.62 73.57 3.21 0
5 04/18/2018 01:58:31 -81.35, 18.84 106.44 04/18/2018 01:57:18 -81.35, 18.99 106.45 2.49 73
6 04/20/2018 19:51:33 -81.34, 109.65 107.47 04/20/2018 19:52:44 -81.33, 109.80 107.43 2.43 71
7 04/20/2018 20:42:12 81.34, -82.38 72.60 04/20/2018 20:42:10 81.34, -82.50 72.58 2.04 2
8 04/23/2018 15:25:53 -81.34, 176.50 108.35 04/23/2018 15:27:02 -81.34, 176.31 108.34 3.22 69
9 04/23/2018 16:16:33 81.34, -15.97 71.67 04/23/2018 16:16:28 81.34, -16.00 71.66 0.46 5
10 04/26/2018 11:00:14 -81.34,-117.06 109.24 04/26/2018 11:01:20 -81.34,-117.19 109.22 2.20 66




NCC Satellite Simultaneous Nadir Overpasses (SNOs) Prediction Service
